Notices

What's New in latest Release from April 7th, 2021:

- Updated Glossary, including Speed of Maximum Gust, and Total Hourly Precipitation

- Updated national and regional climate services offices contacts and prices information

- Addition of station inventory lists for 1981-2010, 1971-2000, and 1961-1990 Normals.

If you haven't already, please take our survey and provide feedback about our website: https://eccc.sondage-survey.ca/f/LanguageSelection.aspx?s=442ca660-fcf1-47c0-95a9-59707d6fd709

Hourly Data Report for February 28, 2021

TORONTO CITY
ONTARIO
Current Station Operator: ECCC - MSC

43°40'00.000" N
79°24'00.000" W
112.50 m
6158355
71508
XTO

Download Data

Hourly Data (February 2021)
Hourly Data Report for February 28, 2021
TIME
LST
Temp Definition
°C
Dew Point Definition
°C
Rel Hum Definition
%
Precip. Amount Definition
mm

Wind Dir Definition
10's deg

Wind Spd Definition
km/h
Visibility Definition
km
Stn Press Definition
kPa
Hmdx Definition


Wind Chill Definition


Weather Definition


00:00 2.3 0.7 89 0.0       100.86     LegendNANA
01:00 1.8 0.3 90 0.0       100.89     LegendNANA
02:00 1.7 0.2 90 0.0       100.91     LegendNANA
03:00 1.3 -0.2 89 0.0       100.89     LegendNANA
04:00 1.4 0.2 92 0.0       100.91     LegendNANA
05:00 2.2 1.2 93 0.0       100.85     LegendNANA
06:00 2.2 1.1 93 0.0       100.83     LegendNANA
07:00 2.2 1.0 92 0.0       100.74     LegendNANA
08:00 2.5 1.5 92 0.0       100.73     LegendNANA
09:00 2.9 1.2 89 0.0       100.60     LegendNANA
10:00 3.7 0.9 81 0.0       100.43     LegendNANA
11:00 4.1 0.0 75 0.0       100.25     LegendNANA
12:00 3.8 0.5 79 0.0       100.14     LegendNANA
13:00 3.7 0.5 80 0.1       99.96     LegendNANA
14:00 3.3 1.3 87 0.7       99.71     LegendNANA
15:00 3.5 1.1 84 0.0       99.66     LegendNANA
16:00 3.8 1.6 85 0.0       99.60     LegendNANA
17:00 3.6 1.7 87 0.0       99.44     LegendNANA
18:00 3.7 1.5 85 0.0       99.33     LegendNANA
19:00 4.2 1.6 83 0.0       99.26     LegendNANA
20:00 5.3 2.7 83 0.0       99.15     LegendNANA
21:00 6.2 3.5 82 0.0       99.02     LegendNANA
22:00 7.2 3.9 79 0.0       98.91     LegendNANA
23:00 6.4 3.9 84 0.0       98.80     LegendNANA

Notes on Data Quality.

Legend

  • E = Estimated
  • M = Missing
  • NA = Not Available*
  • [empty] = Indicates an unobserved value
Date modified: